Theta_e
323 327 330 339 346 348 348 349 349 349 349 349 348 349 348 348 348 349 349 349 349 349 348 348 349 348 348 349 349 349 348 348 348 348 347 348 348 348 348 348 348 349 348 349 349 350 350 349 350 350 349 349 350 350 349 349 349 348 346 343 342 342 343 343 345 346 345 346 347 348 349 353 353 353 353 351 351 352 352 352 350 348 347 349 352
325 326 330 333 346 347 348 349 349 350 349 349 348 348 348 348 348 348 348 348 348 348 349 348 348 348 348 348 348 348 348 347 348 347 348 347 347 347 347 348 348 347 348 349 349 348 349 349 349 349 350 350 349 348 347 346 345 344 341 339 338 339 338 339 341 343 343 343 343 343 343 345 349 352 351 349 349 350 350 349 350 347 345 351 352
325 326 329 333 345 346 347 348 349 349 349 349 348 348 347 348 347 347 347 347 347 347 348 347 348 347 348 347 346 347 347 347 347 346 347 347 346 345 346 347 347 347 347 348 348 348 347 348 348 347 347 346 345 345 344 343 340 339 337 336 335 335 335 334 337 339 339 340 340 339 339 339 343 350 350 349 349 349 348 348 349 348 347 351 351
325 327 328 334 343 345 347 348 348 348 348 348 348 348 348 348 347 347 347 347 347 348 347 347 347 347 347 347 347 347 347 346 346 345 345 345 346 346 346 346 346 347 346 347 347 346 347 346 345 343 341 340 340 340 339 338 337 336 335 334 333 333 333 330 332 334 335 336 336 334 335 332 334 345 350 349 349 349 348 348 348 347 349 350 351
326 326 328 331 337 342 346 347 347 347 347 347 347 347 347 347 348 347 347 347 348 347 347 347 347 347 347 346 347 347 346 345 345 345 344 344 344 344 344 344 345 345 346 345 346 346 344 343 341 340 338 337 336 336 335 335 335 334 333 333 332 331 330 327 328 330 330 330 331 329 328 330 331 340 350 350 350 349 348 348 348 348 348 349 350
325 325 326 328 330 336 344 346 346 346 347 347 347 347 347 347 347 347 347 347 347 347 347 347 347 347 346 346 345 345 345 344 344 343 342 342 342 342 342 343 344 343 344 344 344 343 342 341 339 338 336 334 334 334 333 333 333 332 331 331 330 330 329 326 327 327 326 324 324 322 324 328 330 334 350 350 350 348 348 347 347 348 348 347 349
323 321 323 324 327 332 340 344 345 345 345 345 345 345 345 346 346 346 346 346 346 346 346 346 346 346 345 345 344 344 343 341 341 341 341 340 340 341 341 340 340 341 341 341 341 341 340 339 337 335 334 333 333 332 331 331 330 330 330 330 329 328 327 327 327 325 323 317 315 318 321 327 328 330 347 350 349 348 347 347 348 347 348 347 348
319 319 319 321 324 332 339 343 344 343 345 343 343 343 343 344 344 344 345 344 344 344 344 344 344 343 343 343 341 341 340 340 339 339 338 338 338 337 337 337 338 338 339 339 339 338 337 336 335 333 332 331 330 330 329 329 329 329 328 328 328 327 327 327 325 322 322 313 315 317 321 327 328 329 345 348 348 348 348 348 347 347 347 347 346
321 319 319 319 323 334 338 341 342 342 344 341 342 342 342 342 342 344 343 343 343 343 343 342 342 342 341 340 340 338 338 337 336 335 336 336 336 336 336 336 336 336 336 336 336 335 334 334 332 331 331 329 328 327 327 328 328 327 326 326 327 326 325 324 322 319 314 314 316 318 323 329 327 329 343 347 348 348 347 346 346 347 347 346 346
319 318 317 319 320 334 336 340 340 340 340 340 340 340 341 341 341 341 341 341 342 341 341 340 339 339 339 339 338 336 336 334 333 332 333 333 333 334 334 334 334 333 333 333 333 332 331 331 331 330 329 327 326 326 326 326 325 326 325 324 325 325 323 321 317 315 310 312 315 317 322 331 326 331 343 347 347 346 345 344 343 342 345 345 345
317 317 317 318 319 334 337 337 339 340 340 339 338 337 338 337 337 338 340 340 338 337 338 339 336 336 335 336 335 335 334 332 331 330 330 330 331 332 332 331 331 331 331 331 331 330 330 329 329 328 327 326 325 325 324 324 323 323 323 322 322 322 320 317 312 306 308 310 312 313 318 327 324 333 345 346 346 345 343 343 343 343 344 345 346
317 316 316 316 325 333 336 336 337 337 338 337 336 335 336 336 336 337 336 335 335 335 334 335 334 334 334 333 332 332 332 330 330 329 329 329 329 329 329 329 329 329 329 329 328 329 328 328 327 326 325 324 324 323 322 322 321 321 321 320 319 319 317 313 306 305 304 307 310 313 313 317 322 335 344 344 343 342 340 340 341 342 342 343 344
316 316 316 317 319 331 335 336 336 335 336 335 335 335 335 335 335 335 335 334 334 334 334 334 333 333 333 332 331 331 330 329 329 328 328 328 328 328 327 328 327 327 327 327 328 329 328 327 327 326 324 323 322 321 321 320 319 319 319 318 317 315 313 311 302 303 304 304 309 309 311 316 322 336 338 341 340 339 339 339 338 339 339 340 340
314 315 315 317 319 327 332 335 335 335 335 335 335 334 334 334 334 334 334 333 333 333 333 333 332 332 331 331 330 329 328 327 328 328 327 327 327 327 327 327 327 327 326 326 327 327 326 326 326 324 323 322 321 320 319 318 318 318 317 316 315 313 308 305 305 301 303 303 308 309 310 316 324 334 336 337 337 337 336 335 335 335 336 337 337
315 313 313 315 318 321 327 332 333 334 334 333 333 333 333 333 333 332 332 332 332 332 331 331 331 331 330 330 329 328 328 327 328 327 326 326 326 326 327 326 326 326 326 326 326 325 325 325 324 323 322 321 320 319 317 317 316 316 315 314 313 311 307 297 299 299 301 304 304 308 309 313 330 332 334 334 335 335 334 333 333 333 333 333 333
314 313 312 314 316 316 320 325 330 332 332 332 333 333 332 332 332 331 331 331 331 330 330 330 330 329 329 329 328 328 327 327 327 326 325 325 325 326 326 326 325 325 325 325 324 323 324 323 322 321 320 319 319 318 316 316 314 313 313 312 311 309 306 301 296 297 299 300 302 306 307 314 329 330 331 332 332 332 332 332 332 332 332 332 331
312 312 313 313 312 315 316 319 324 328 328 329 330 332 333 331 331 331 330 330 330 330 330 329 329 329 329 327 327 327 326 326 326 325 325 325 325 325 324 325 325 324 323 322 321 321 321 320 320 319 319 318 317 316 315 314 313 311 310 309 309 308 305 300 295 295 298 302 301 304 306 315 326 329 329 330 330 330 330 330 330 330 331 331 330
309 311 314 313 313 313 314 315 319 323 321 324 326 329 330 331 330 330 330 329 329 329 329 328 328 328 326 326 325 325 324 324 324 324 324 324 324 323 323 324 324 323 321 321 320 319 318 318 318 318 317 317 316 315 314 312 311 309 308 307 307 305 302 299 293 293 296 302 296 304 307 321 325 327 328 328 328 328 329 328 328 329 329 329 329
307 309 312 312 313 311 314 314 314 315 317 316 318 323 327 328 329 330 329 328 328 327 327 326 326 325 325 325 324 323 322 322 322 322 322 321 321 322 322 322 322 321 321 319 318 318 316 315 315 315 315 315 314 314 312 310 309 307 307 305 303 301 299 295 292 291 295 296 297 299 308 319 324 326 327 327 326 327 327 327 327 328 328 328 328
306 308 310 311 312 311 311 312 313 312 312 313 315 314 323 324 327 328 328 327 327 327 326 324 322 320 320 320 319 316 316 314 318 316 319 320 319 316 320 321 320 320 319 318 317 316 315 314 312 311 310 310 310 310 309 309 308 306 305 303 300 296 290 290 290 291 291 295 299 297 314 318 322 326 326 325 325 325 325 326 326 327 327 327 327
306 307 309 310 310 311 310 311 310 311 311 311 312 312 316 322 323 323 324 324 325 324 324 320 315 314 312 312 310 305 303 304 305 306 312 309 314 316 319 319 319 317 317 317 316 315 313 312 311 309 308 306 303 303 304 306 305 304 303 300 296 289 289 289 289 291 291 293 296 300 314 317 320 324 324 324 324 324 324 325 325 326 326 327 326
306 307 307 309 309 310 310 310 309 309 309 310 310 310 311 319 312 313 313 318 320 319 314 309 310 305 310 304 299 302 299 298 301 308 305 308 311 314 316 317 317 316 315 315 315 313 312 311 310 308 306 304 299 289 291 297 301 301 299 296 289 288 288 288 288 288 290 292 294 305 313 317 319 322 323 323 322 322 323 324 324 324 326 326 325
306 307 308 308 309 309 309 310 309 308 308 308 309 309 309 309 307 310 311 315 312 307 305 305 301 300 297 296 298 297 296 297 299 302 303 309 310 313 315 315 315 314 313 313 312 312 310 309 308 306 304 299 290 288 288 287 288 295 293 289 287 287 288 288 288 287 287 292 290 307 311 315 318 320 323 322 322 322 322 323 323 324 325 325 325
308 308 309 308 307 309 309 309 308 306 307 307 307 307 307 307 307 308 309 307 304 302 300 299 298 296 294 294 294 295 295 297 306 307 307 303 307 310 311 311 310 309 307 306 310 309 308 306 304 301 296 291 288 288 288 287 287 287 287 287 287 287 287 287 286 286 287 290 292 305 309 314 317 319 322 322 321 322 322 323 323 323 323 324 325
307 307 305 307 307 308 308 307 307 305 306 306 306 306 305 304 305 304 304 301 300 298 297 296 295 293 292 293 293 294 295 298 297 297 295 294 293 293 294 293 292 293 296 289 290 291 289 287 289 290 288 289 288 288 287 287 288 287 287 287 287 286 286 287 286 285 286 287 292 303 306 311 315 317 320 321 321 321 321 322 322 323 323 324 324
301 304 306 307 307 307 308 307 305 304 305 305 306 306 305 304 303 302 301 300 299 296 294 293 292 292 292 292 295 295 295 294 292 291 291 289 288 288 289 288 289 290 291 287 287 287 287 287 287 287 287 287 287 287 288 288 286 286 286 286 286 286 285 285 285 285 286 286 290 301 304 308 313 316 318 320 320 320 320 320 322 322 322 322 322
301 305 306 306 306 306 306 306 305 304 303 304 304 304 303 304 302 300 301 297 296 295 293 292 292 291 291 294 294 293 291 290 290 289 288 288 287 287 287 287 287 287 289 288 287 287 287 286 286 286 286 286 286 286 286 286 285 286 286 285 285 285 285 285 285 285 285 286 290 298 303 306 310 314 317 318 319 320 320 321 321 321 321 321 321
299 302 303 304 305 305 306 305 305 303 303 302 302 302 302 301 300 301 300 299 296 295 292 291 292 291 292 293 294 291 291 289 289 287 287 287 287 287 287 286 287 287 288 288 287 286 286 286 286 285 286 286 286 285 285 285 285 285 285 285 285 285 285 284 285 285 285 285 287 293 301 304 307 310 315 316 318 318 319 320 321 321 321 321 319
299 300 300 301 303 305 305 304 304 303 303 301 302 301 300 299 299 299 298 300 295 295 293 292 291 291 292 293 293 290 288 289 288 287 287 287 287 287 286 286 287 287 287 286 287 287 286 285 286 285 285 285 285 285 285 284 284 285 285 285 284 284 284 284 284 284 284 284 285 290 298 302 306 308 312 314 316 317 317 319 319 320 320 319 318
298 299 299 300 301 303 303 304 304 303 302 300 301 300 299 298 298 298 297 298 294 293 292 291 291 291 291 292 291 289 289 288 288 286 286 286 286 286 286 286 286 286 286 286 286 286 286 285 285 285 285 284 285 287 284 284 284 284 284 284 284 284 284 284 284 284 284 284 285 287 294 298 302 306 309 311 313 314 315 316 318 318 319 317 317
297 297 298 298 299 300 302 303 303 303 301 300 300 300 299 298 298 297 296 296 294 293 292 291 291 291 291 291 291 291 289 288 287 287 286 286 286 286 286 286 285 286 286 286 286 286 285 285 285 284 284 284 284 285 284 283 283 283 284 283 284 284 284 284 284 284 284 284 284 285 288 294 298 302 306 308 309 310 311 313 316 316 315 315 316
296 297 298 298 297 298 300 301 302 302 300 300 300 299 298 298 297 296 295 295 293 292 292 291 292 291 291 290 290 290 290 287 287 287 286 286 285 285 285 285 285 285 286 285 286 286 285 285 285 284 284 284 284 284 284 282 282 283 283 283 283 284 283 284 284 284 284 284 284 284 285 289 293 299 301 304 307 308 310 311 311 311 311 312 314
298 298 297 296 296 297 298 299 301 301 300 299 299 298 297 297 296 295 295 294 293 292 291 291 291 291 291 290 290 289 290 288 287 288 289 285 285 284 284 286 285 286 286 286 286 285 285 285 285 284 283 283 283 283 284 282 282 282 282 283 283 283 283 283 284 284 283 284 284 284 284 287 286 293 296 299 303 306 308 308 307 307 308 310 312
298 297 296 296 297 297 298 298 299 299 299 299 298 297 296 296 295 294 294 293 293 292 292 291 291 290 291 290 289 289 289 288 287 287 287 285 285 284 284 284 284 285 286 286 285 284 284 284 284 284 287 283 282 282 282 282 282 282 282 282 282 282 282 283 283 283 283 283 283 283 284 284 284 288 289 294 297 302 305 305 305 305 306 307 309
298 296 296 297 296 296 297 297 298 298 299 298 297 296 295 295 294 293 293 293 292 291 291 290 290 290 290 290 289 290 289 288 287 287 286 285 284 283 284 284 284 285 285 284 284 284 284 284 283 282 282 282 282 284 282 282 282 282 282 283 282 283 282 282 282 282 283 283 283 283 284 283 285 287 288 285 290 296 301 302 302 303 305 305 307
297 298 297 296 296 296 296 296 297 297 297 298 297 296 295 294 293 294 292 292 292 291 291 290 290 289 290 289 289 289 289 288 287 287 286 285 285 284 283 284 284 285 284 284 284 284 283 283 283 282 282 281 282 281 281 281 282 282 282 282 282 284 281 281 282 283 283 282 283 283 283 283 285 286 289 284 284 289 297 298 299 300 301 303 304
298 298 297 296 295 295 296 296 295 296 297 297 296 295 293 292 292 292 291 292 292 291 290 290 289 289 289 290 289 289 289 288 287 287 287 285 285 284 283 284 284 284 283 283 283 284 283 283 282 283 281 281 281 281 281 281 282 281 281 281 281 283 281 281 283 283 284 282 282 283 282 282 286 288 282 282 283 284 290 295 296 296 296 299 301
298 298 298 297 296 295 295 296 296 296 296 296 296 295 293 292 291 290 291 291 291 291 290 289 289 289 289 289 289 289 289 287 287 287 286 286 285 283 283 283 284 283 283 283 283 283 282 282 281 281 281 281 280 280 281 281 282 282 281 281 281 281 281 281 284 287 281 282 283 283 281 281 282 282 282 282 282 283 283 287 292 293 293 295 298
299 298 297 297 296 295 295 295 295 295 295 296 296 294 292 290 288 289 289 290 290 289 289 288 289 289 289 289 289 289 289 287 287 287 286 286 284 283 283 283 284 283 283 283 282 283 282 280 282 281 281 280 280 280 280 282 281 281 281 280 280 280 281 284 282 281 281 281 285 285 282 282 281 281 282 282 282 282 283 283 283 283 284 292 295
298 297 297 296 296 294 294 294 295 295 295 295 295 293 291 290 289 287 288 289 289 289 288 289 289 289 290 289 289 289 289 288 287 286 286 286 284 283 283 283 283 283 283 282 282 282 281 281 281 282 282 281 281 280 280 281 279 279 282 280 280 280 283 282 281 280 281 280 280 281 282 282 281 280 281 282 282 282 282 282 285 282 284 287 292
296 296 296 296 296 295 294 293 295 294 294 294 294 293 291 290 289 289 289 290 290 290 289 289 289 289 289 289 289 289 289 288 287 286 286 286 284 283 283 283 283 283 283 283 283 282 281 281 283 282 280 279 280 279 280 279 279 279 278 279 280 281 285 282 280 279 280 280 280 280 281 281 280 281 281 281 281 281 282 282 282 282 282 282 284
295 295 296 296 296 295 294 294 294 294 294 294 294 293 293 292 291 290 291 290 290 289 289 289 289 289 289 289 289 289 288 288 287 286 286 285 284 283 283 283 283 283 283 282 281 283 282 282 282 279 279 278 279 279 279 278 279 278 279 280 278 278 283 280 281 280 280 280 280 280 281 280 280 280 281 281 281 281 281 282 281 282 282 282 283
296 295 296 296 295 295 295 294 294 294 294 294 294 294 293 293 292 291 291 290 290 290 290 290 290 288 288 288 288 288 288 287 287 287 286 285 284 284 283 283 283 283 282 282 282 281 281 282 281 281 279 279 280 281 279 277 278 278 278 278 277 279 282 278 278 279 279 280 280 280 281 280 280 280 281 280 280 280 281 281 281 281 281 281 282
294 294 295 295 295 295 295 294 294 294 294 294 295 294 294 292 290 288 289 289 288 289 288 287 288 287 287 287 288 288 288 287 287 286 286 285 284 284 283 283 283 283 283 282 281 281 281 281 280 281 281 279 278 279 281 279 277 279 279 278 276 277 276 277 276 278 278 279 279 279 280 280 279 280 280 279 280 280 280 281 280 280 280 280 281
294 295 295 295 296 295 295 294 294 294 294 294 294 293 292 289 288 287 287 286 286 287 285 285 287 287 287 286 287 288 288 287 287 286 286 285 284 284 283 283 283 282 282 282 282 281 281 282 281 281 280 281 278 277 280 279 278 280 279 276 276 278 277 276 276 276 276 278 279 278 282 280 279 281 278 279 279 279 280 280 280 280 280 280 280
294 295 295 296 296 295 295 294 294 294 293 293 294 293 292 291 288 288 286 287 286 285 286 287 286 286 287 288 287 287 287 287 286 286 286 286 284 284 283 283 282 282 282 282 282 280 280 281 281 281 279 279 280 278 278 280 279 280 278 276 278 278 276 275 276 278 277 278 277 278 279 278 278 279 278 278 278 278 281 280 279 280 279 280 280
294 295 294 294 294 295 294 294 294 293 293 293 293 293 291 291 290 290 290 289 288 288 289 289 288 288 289 287 287 287 287 287 286 286 286 285 284 284 283 283 283 282 283 281 281 281 281 281 281 280 279 281 280 278 279 278 277 278 278 278 279 278 277 276 275 276 277 276 276 277 278 277 277 278 278 278 278 278 278 280 279 279 279 279 279
294 292 293 293 294 294 293 293 293 293 293 293 293 293 292 291 290 290 290 290 290 290 289 289 289 288 288 287 287 286 286 287 286 285 285 285 284 283 283 283 282 282 283 282 282 281 281 281 281 280 279 281 280 281 278 278 278 278 279 278 278 278 277 277 276 276 275 274 275 276 276 276 276 277 278 277 278 277 277 278 278 278 278 279 279
292 293 293 294 294 293 293 292 293 293 292 292 292 292 292 291 291 290 290 291 291 290 288 289 288 288 287 286 286 286 286 286 286 285 285 285 285 284 283 283 282 282 283 282 281 280 280 280 280 279 279 279 279 280 279 278 278 278 277 276 277 276 276 276 277 277 275 274 274 275 276 276 276 277 278 277 277 277 278 278 279 280 280 280 279
291 292 291 292 291 290 291 291 291 292 292 292 292 292 292 292 290 290 290 290 290 287 287 287 287 286 286 285 286 285 285 285 285 285 284 284 284 284 283 283 282 282 283 281 280 280 280 280 281 280 280 279 278 279 279 279 279 279 279 278 276 275 276 276 275 276 276 275 276 274 275 275 275 276 276 277 276 277 277 278 277 277 277 278 278
288 290 290 289 289 290 290 290 291 291 291 291 292 291 291 291 291 291 290 290 289 286 285 285 285 284 286 285 285 285 285 285 285 284 285 284 284 284 283 283 283 283 283 281 280 280 280 280 280 280 279 279 279 279 281 278 278 279 278 278 278 278 277 275 275 275 275 274 274 274 275 276 275 275 276 276 278 277 277 277 277 277 277 277 277
Wind_Speed
7 8 6 7 9 12 13 14 14 14 13 13 12 12 11 10 10 10 9 9 9 8 8 8 8 7 7 7 8 7 7 7 7 7 7 6 6 6 6 6 6 6 6 7 8 9 10 10 10 11 12 13 13 15 15 15 16 14 14 14 14 14 14 14 14 14 13 13 12 13 12 12 10 11 11 12 12 12 11 12 10 6 5 7 11
14 8 6 6 11 12 13 13 14 14 15 14 13 12 11 11 10 9 9 9 9 9 9 8 8 8 8 7 7 8 8 8 7 8 9 9 8 7 8 8 7 6 8 9 10 10 11 11 12 13 15 16 16 16 15 16 15 15 14 14 14 15 15 15 14 14 14 13 12 12 11 11 11 10 11 12 12 12 10 10 10 7 4 11 11
7 6 5 6 10 11 12 13 13 14 14 14 14 13 13 11 11 10 9 9 9 10 9 8 8 8 8 7 7 9 9 10 10 10 10 11 11 10 9 10 9 8 9 9 10 11 11 14 16 16 17 16 17 17 16 16 14 14 13 14 14 14 15 14 14 14 13 13 13 11 11 10 11 8 10 11 11 11 10 9 9 8 7 12 10
10 6 5 7 9 10 12 13 13 13 13 13 12 11 12 11 11 11 10 10 10 10 9 9 8 9 9 9 10 10 10 11 10 10 10 10 10 10 11 10 9 10 9 10 11 13 15 16 15 16 16 16 16 15 14 13 12 13 13 13 14 14 15 15 14 14 14 13 13 10 6 6 6 8 9 11 11 11 9 9 10 12 12 11 12
8 6 5 5 6 8 12 12 13 13 13 13 12 12 11 11 10 10 10 10 10 9 10 10 11 11 12 11 12 11 10 10 10 9 9 9 8 8 9 9 10 10 10 10 13 15 15 15 15 15 15 14 13 13 13 12 13 13 13 13 13 14 14 14 14 14 13 13 13 9 6 6 5 9 7 10 10 10 9 9 10 12 12 12 12
6 5 4 4 4 5 9 11 13 13 13 13 13 12 11 10 10 11 10 10 10 11 11 11 12 12 11 11 10 10 10 10 9 8 8 8 7 7 7 8 10 11 11 10 11 11 13 14 13 14 14 13 12 13 13 13 13 13 13 13 13 13 14 13 13 13 13 12 12 6 6 6 6 6 7 8 11 10 10 10 12 12 12 13 13
6 4 4 4 4 5 8 9 12 12 11 11 11 11 11 10 10 11 11 11 11 11 11 11 11 10 10 9 9 9 8 7 6 7 7 6 6 7 7 7 6 8 9 11 11 12 12 12 13 13 12 12 12 13 12 13 12 12 12 13 13 13 13 13 12 12 12 8 6 5 5 6 6 4 9 8 10 11 12 12 12 12 12 12 13
4 3 3 4 4 5 7 9 13 12 12 11 10 10 10 10 10 10 10 10 9 9 10 9 8 8 8 8 7 7 7 7 5 6 6 5 4 4 6 5 5 7 7 8 11 11 12 13 12 11 11 12 12 12 12 12 12 12 12 13 13 13 13 12 12 11 11 6 5 5 6 5 5 4 10 6 9 11 11 12 11 12 12 12 9
6 4 3 3 3 5 6 8 11 13 13 11 11 11 11 11 10 10 10 10 9 8 9 8 7 7 7 7 7 6 5 5 4 4 6 5 5 6 6 6 6 6 7 10 11 11 12 12 11 10 11 12 12 12 12 13 13 13 13 13 13 13 13 12 11 11 7 5 5 5 6 5 5 4 7 7 9 11 12 9 7 10 12 10 8
5 4 4 4 4 4 6 7 14 15 11 12 11 11 10 13 12 10 10 9 10 9 8 8 8 7 7 7 7 6 6 5 5 6 6 6 6 8 9 9 9 10 10 10 11 11 11 11 11 11 12 12 13 13 13 13 13 14 14 14 13 13 13 12 12 9 5 5 5 6 6 9 5 5 6 8 10 11 12 11 9 8 6 8 10
6 5 4 4 4 6 7 10 11 10 14 13 13 12 13 11 11 13 12 11 11 11 11 11 10 10 10 9 9 8 8 7 7 7 7 7 8 9 10 10 10 11 10 11 11 11 11 11 11 12 12 12 12 13 13 13 14 14 14 14 14 14 13 12 10 5 5 6 6 6 7 11 6 4 11 11 11 12 13 12 11 11 13 13 14
6 4 4 4 5 7 8 11 11 11 8 9 11 11 11 11 12 12 12 10 11 10 10 9 8 8 8 8 8 9 9 9 9 9 8 8 9 9 10 10 10 11 10 11 11 11 11 12 12 12 13 12 13 13 13 13 14 14 14 14 14 13 13 13 7 6 5 6 6 6 6 7 7 7 14 14 15 14 15 15 15 15 15 15 15
6 4 4 4 5 8 9 11 11 12 13 13 13 13 13 13 13 12 12 11 12 11 10 10 9 9 9 9 10 10 10 10 11 11 10 10 10 11 11 11 11 11 11 11 11 11 12 12 12 13 13 13 13 13 13 13 13 14 14 14 14 13 12 13 6 6 6 5 6 6 6 6 5 12 12 13 13 14 16 15 15 15 15 15 15
5 5 4 4 4 8 11 11 11 13 14 14 14 14 13 13 13 13 13 12 12 11 11 11 11 10 10 11 11 11 11 12 12 12 12 11 11 12 12 12 12 12 11 11 12 12 12 12 13 13 13 13 13 13 13 13 13 14 14 14 14 13 12 9 8 5 6 6 5 6 6 6 5 12 13 12 11 14 15 14 14 15 15 15 15
7 5 4 4 4 5 9 9 10 11 11 13 14 14 14 14 14 14 13 13 12 12 12 12 11 12 12 11 12 12 13 13 13 12 12 12 12 12 13 13 13 13 13 13 12 12 12 13 13 12 12 12 13 13 13 13 14 14 14 15 14 13 12 6 6 5 6 5 5 5 6 5 10 12 13 13 14 13 14 14 14 14 14 14 14
5 5 4 4 4 4 4 6 9 8 10 12 12 13 14 14 14 14 13 13 13 13 12 12 13 13 12 13 13 13 13 13 13 13 13 13 13 13 13 13 13 13 13 13 13 13 13 13 13 12 12 12 13 13 13 14 14 14 15 14 14 14 12 7 5 5 5 5 5 5 6 5 12 12 13 14 14 14 14 14 15 14 14 14 14
5 5 5 5 5 5 4 4 6 8 9 9 9 11 11 13 14 14 14 13 13 13 13 13 13 13 14 14 13 13 13 13 14 13 14 13 13 14 14 14 14 14 14 14 14 13 13 13 13 13 12 13 13 13 13 14 15 15 14 14 14 14 13 9 6 5 5 5 4 5 6 5 9 11 12 12 12 12 12 13 13 14 14 14 13
4 5 6 6 5 4 5 4 4 5 5 6 8 10 10 11 13 13 13 13 13 13 13 13 13 13 13 13 13 13 13 13 13 14 14 13 14 14 14 14 14 14 14 14 14 14 13 13 13 13 13 13 13 13 14 14 15 15 15 14 14 14 12 10 6 5 6 6 6 5 5 8 11 11 11 11 12 12 12 12 12 12 12 12 12
4 4 5 6 6 5 5 5 5 4 5 5 4 7 9 10 10 10 10 13 14 13 12 12 12 12 12 12 11 10 10 11 12 13 13 13 13 12 13 14 14 14 14 14 14 14 14 13 13 13 13 13 14 14 14 14 15 15 15 14 14 13 13 8 6 6 6 6 6 6 6 12 11 10 11 11 11 12 12 12 12 12 12 12 12
4 4 5 6 6 5 5 6 5 5 4 5 6 5 7 9 9 10 11 12 12 11 10 11 9 10 10 10 9 7 7 6 10 8 11 11 9 8 12 14 14 14 14 14 14 14 13 14 13 13 13 13 14 14 14 14 14 14 14 14 13 12 7 6 5 6 6 6 5 6 8 12 11 10 10 11 11 11 11 11 11 12 12 12 12
4 6 6 7 6 7 6 6 5 5 5 5 5 5 6 9 8 10 10 10 10 10 10 9 10 9 8 8 8 5 4 4 5 5 8 5 9 10 11 14 14 14 14 13 14 14 14 13 14 14 14 14 13 13 14 14 14 14 14 13 11 7 6 6 6 5 5 5 6 6 12 11 11 10 10 11 11 11 11 11 11 11 12 12 12
8 7 7 7 8 7 8 7 6 6 6 6 5 4 4 6 5 5 5 7 8 9 7 6 7 6 8 7 5 4 5 4 4 6 4 5 7 10 11 13 14 14 13 13 13 13 13 14 14 14 14 13 12 7 6 9 12 12 12 11 7 5 5 5 6 5 5 5 5 7 13 12 11 10 10 10 10 10 10 10 11 11 11 12 12
9 9 9 10 8 7 6 8 7 6 6 5 5 5 5 4 5 5 5 6 6 6 6 6 5 6 5 5 4 4 4 4 4 4 5 7 7 10 11 13 14 14 14 14 13 13 13 13 14 13 13 12 7 5 5 5 5 9 8 6 5 5 5 5 5 5 5 4 4 10 12 12 11 10 9 9 9 9 10 10 11 11 11 12 12
12 12 11 7 7 9 10 8 8 7 7 6 5 5 5 5 5 5 5 5 5 6 5 5 6 5 6 5 5 4 4 4 5 8 7 5 6 8 10 11 12 11 11 8 11 12 13 13 13 12 8 5 5 5 5 5 5 5 5 5 5 5 5 5 5 4 5 4 4 12 12 12 11 10 9 9 9 9 10 10 11 11 11 12 12
10 5 5 10 11 10 8 8 7 7 7 7 6 7 5 6 5 6 5 5 6 6 6 6 5 6 5 5 5 4 4 5 4 5 6 5 5 5 5 5 5 6 8 6 6 6 6 6 6 6 5 5 5 4 4 5 4 5 5 5 5 4 5 5 4 5 4 4 5 12 12 11 11 11 10 9 9 9 10 10 10 11 11 12 13
4 8 13 10 11 10 9 8 7 8 8 8 8 7 7 7 6 6 6 5 6 6 6 6 6 6 5 5 5 5 5 6 4 4 4 5 5 5 5 5 5 5 4 6 5 5 5 5 6 6 5 4 5 4 3 3 4 4 5 4 4 4 5 5 5 5 4 5 5 11 11 11 11 11 10 9 9 9 10 10 10 11 11 11 12
10 13 9 8 8 9 9 9 10 9 9 7 7 7 7 7 7 7 7 6 6 6 6 6 7 6 6 6 7 6 6 6 5 5 5 5 5 6 6 5 6 6 5 7 6 5 5 5 5 5 4 4 4 4 4 4 3 4 4 4 4 4 5 5 5 5 5 5 5 11 11 11 11 11 11 10 10 10 10 10 10 10 10 11 12
5 9 8 9 10 13 11 10 10 10 9 8 8 8 7 7 7 7 7 7 7 7 7 7 7 7 6 6 6 7 7 7 5 6 6 4 5 5 5 5 6 5 4 6 7 5 6 5 5 4 5 4 4 4 4 4 4 3 4 4 4 4 4 4 4 4 5 5 4 9 12 11 11 11 11 11 10 10 10 10 10 10 11 11 12
12 11 9 10 12 12 12 13 11 11 9 8 9 7 7 7 7 8 8 8 8 7 8 7 7 7 6 7 6 7 6 6 6 6 5 5 5 5 5 6 5 5 5 5 6 6 6 5 5 5 4 4 4 4 3 4 4 4 4 4 4 4 4 4 4 4 4 5 5 7 12 12 11 11 12 11 11 11 11 11 10 10 11 12 12
16 11 11 11 8 10 14 15 14 12 11 9 9 8 8 9 9 9 8 8 8 7 7 8 7 8 7 6 7 7 7 8 7 6 6 6 5 4 5 5 5 5 5 6 4 6 6 6 5 4 5 4 4 3 3 4 5 4 4 4 4 4 3 3 4 5 3 4 5 5 10 12 12 12 12 11 12 12 12 12 11 10 11 12 12
10 13 12 10 9 10 13 13 12 11 9 11 10 10 9 10 9 8 8 9 8 7 8 8 7 8 8 8 7 6 7 6 6 7 5 6 5 5 5 5 6 5 5 5 3 5 5 5 5 5 5 5 4 2 3 5 4 4 3 4 4 4 4 4 3 3 4 4 5 4 5 10 12 12 13 12 12 12 12 12 12 12 12 12 12
13 16 13 10 10 14 13 12 13 12 12 12 10 10 11 10 9 8 9 8 7 8 8 8 8 8 7 8 7 7 6 6 6 6 6 6 6 5 5 5 5 4 4 5 5 4 4 4 4 3 3 4 4 3 3 5 5 4 3 3 3 4 4 4 4 4 3 4 4 5 5 5 10 12 13 13 13 13 12 12 13 13 13 13 13
14 14 11 10 15 13 13 13 13 12 14 14 13 11 9 9 9 10 8 8 8 7 8 9 8 8 8 8 8 7 6 7 7 7 6 6 5 5 5 4 4 5 4 4 5 4 5 5 4 3 4 3 4 3 2 3 4 3 3 3 3 3 3 3 3 4 4 3 5 4 5 4 4 7 11 12 13 13 13 13 14 14 14 14 14
11 9 9 14 12 8 10 9 13 15 16 13 11 10 11 10 9 8 8 9 8 9 9 7 7 8 8 8 8 8 7 6 7 6 6 6 5 5 5 5 4 4 4 5 6 5 5 5 5 4 3 3 4 2 2 3 4 3 3 2 2 2 2 3 3 3 3 4 3 4 5 5 5 5 5 9 12 13 13 13 14 14 14 14 15
8 8 15 17 12 13 11 11 14 16 15 15 15 13 11 11 10 9 9 10 9 9 8 7 7 8 8 8 8 8 8 7 7 8 7 6 6 5 5 5 4 4 5 5 6 5 5 6 6 6 3 4 3 2 2 3 3 4 3 2 2 1 2 3 2 3 3 3 3 4 5 5 4 4 5 6 7 11 13 14 14 14 14 14 14
15 16 14 9 14 13 13 13 14 16 17 17 15 13 12 11 10 9 9 9 9 9 8 9 8 7 8 8 8 8 8 8 8 7 7 7 6 6 5 5 5 5 5 5 5 6 5 5 3 5 6 2 3 2 2 3 3 4 2 2 2 1 3 2 3 3 2 3 5 4 4 4 4 4 4 5 5 6 13 14 15 15 15 15 15
16 14 14 13 13 14 15 16 17 19 17 14 12 10 10 10 10 10 10 9 9 9 8 7 7 8 7 8 8 9 8 8 8 8 7 7 7 6 5 5 5 5 6 5 5 5 6 5 3 0 1 5 3 3 1 2 3 3 2 3 2 2 3 2 2 3 2 5 3 3 4 4 3 5 5 5 5 5 8 15 15 16 16 16 15
12 14 14 16 17 15 15 16 14 13 13 14 14 12 10 8 7 7 8 9 9 8 8 8 8 8 8 9 9 9 9 9 8 8 7 6 6 6 5 6 6 6 6 5 5 4 3 4 5 2 3 5 4 3 2 1 2 3 3 3 3 3 2 3 2 2 4 4 4 4 2 2 4 4 4 4 4 5 5 9 12 12 14 16 15
11 13 12 12 10 12 12 13 13 13 12 12 11 8 7 6 4 6 6 7 7 7 7 7 8 8 10 10 10 10 9 9 9 9 8 8 7 7 7 6 6 6 6 6 5 5 4 3 5 5 2 3 5 3 2 2 3 3 5 4 3 3 2 3 3 4 4 3 3 2 2 4 3 4 4 5 5 5 6 6 6 6 7 14 14
10 10 12 12 12 10 10 11 12 13 12 10 10 10 8 9 10 6 6 8 8 8 8 10 9 10 11 10 10 10 10 10 10 10 9 8 8 8 8 7 7 7 8 8 8 8 9 7 6 8 7 3 2 1 1 3 3 5 4 4 4 3 4 3 4 4 4 4 3 2 5 3 5 4 5 4 5 5 6 6 5 6 5 8 13
10 11 12 14 14 15 14 17 14 14 13 13 13 13 14 11 8 12 14 12 12 12 11 11 11 11 11 11 11 10 10 10 10 10 10 9 8 7 8 7 7 8 8 10 8 8 6 6 7 4 5 4 1 1 1 2 4 2 3 5 5 3 2 2 3 3 3 2 2 5 4 5 4 5 4 5 5 5 5 5 5 5 5 5 6
11 12 16 17 16 15 16 15 11 13 15 16 15 15 15 17 18 19 17 14 13 13 14 12 13 11 11 10 10 10 11 11 10 11 10 11 10 9 9 10 9 9 7 4 5 5 6 6 7 4 1 4 2 1 0 2 3 3 3 1 4 4 1 0 1 2 3 3 2 3 4 4 5 3 4 5 4 4 4 3 3 4 4 4 4
12 15 15 12 12 13 15 13 13 15 15 15 13 15 13 12 12 8 11 9 8 9 8 9 9 10 10 10 10 10 11 10 11 11 11 11 11 10 10 9 10 8 8 8 7 8 8 10 9 9 5 2 2 1 0 1 5 2 2 4 1 2 1 1 1 1 2 1 0 3 4 4 3 3 3 4 4 4 3 3 4 4 4 4 4
7 8 10 13 12 14 14 14 14 15 14 15 15 12 10 6 4 3 5 5 6 5 5 5 7 7 10 11 11 11 12 12 11 12 10 11 12 12 10 9 10 10 10 10 10 10 9 8 7 5 9 5 2 1 0 0 4 8 2 1 2 2 0 3 3 3 0 1 1 1 2 2 1 3 4 3 3 4 4 3 4 4 4 3 3
9 11 11 13 12 17 16 16 14 15 13 14 14 10 9 7 6 6 5 6 5 6 5 5 9 9 9 11 13 11 11 12 12 13 12 13 11 11 11 11 10 10 9 9 10 12 12 10 10 8 9 9 7 2 1 1 1 1 6 5 2 0 3 1 1 4 3 2 0 1 1 1 1 1 2 2 2 2 3 4 4 4 4 4 3
11 11 10 13 11 11 11 12 11 11 13 14 15 13 13 14 12 11 11 10 9 10 15 17 12 14 17 10 9 13 13 12 11 13 12 11 12 12 11 11 11 10 10 10 9 6 8 9 11 10 8 4 8 7 3 0 1 1 0 0 2 3 5 3 2 2 2 0 2 2 1 0 0 1 0 1 2 3 3 4 4 4 4 4 3
12 8 7 8 10 9 11 13 13 12 12 13 16 13 13 13 17 18 16 17 18 16 14 11 14 13 9 12 13 11 12 13 12 13 13 12 12 11 11 11 11 10 9 8 8 11 11 10 7 7 7 7 8 6 9 6 2 1 3 2 3 2 4 7 5 2 1 1 1 1 1 1 1 1 1 2 1 2 3 3 4 4 4 3 3
9 5 7 7 10 12 11 13 11 11 12 12 15 16 16 15 15 15 14 15 17 16 14 14 11 10 12 13 11 11 12 12 13 12 13 13 12 11 11 10 11 10 10 10 11 9 7 4 7 5 5 7 9 10 8 9 9 4 2 3 3 4 4 5 3 5 3 1 1 1 1 3 2 2 3 3 2 2 3 4 4 4 4 3 3
6 7 8 8 7 7 8 9 12 12 12 15 16 17 15 16 16 15 15 14 13 8 7 7 9 10 12 9 10 10 11 11 11 13 12 12 12 13 12 11 11 11 10 9 8 8 11 11 10 8 9 7 6 6 10 10 7 9 7 2 4 5 4 4 3 4 4 3 5 2 3 2 2 5 6 4 3 2 3 4 5 4 3 4 2
5 5 4 2 3 4 6 8 11 10 10 13 15 16 16 13 14 16 17 14 9 6 7 9 9 8 11 10 10 9 10 10 11 11 11 13 13 12 12 14 13 12 11 11 9 9 9 9 11 10 8 8 5 7 10 9 7 8 9 10 6 4 4 2 1 2 1 1 4 4 2 1 5 2 3 4 4 4 4 5 5 4 4 4 3
3 2 3 4 4 5 6 8 9 8 11 14 15 17 15 15 16 17 17 14 11 9 9 10 9 9 12 11 11 10 10 11 10 10 12 12 13 13 13 13 12 11 11 11 12 11 11 10 9 6 7 9 8 7 4 6 7 8 8 10 11 11 10 8 9 6 5 4 2 5 3 5 5 5 3 2 2 5 6 5 5 4 3 3 2
Wind_Direction
227 189 189 197 189 181 179 176 171 174 174 177 176 175 172 172 173 170 174 175 172 169 173 171 173 172 168 164 157 147 142 137 132 125 118 114 101 95 87 85 85 90 92 87 90 87 85 83 82 82 77 71 68 60 53 50 50 46 39 34 32 30 26 23 20 19 19 21 25 32 30 33 55 74 71 68 63 56 49 40 35 20 21 36 46
177 196 178 180 185 177 178 175 173 171 171 172 173 174 169 169 171 172 174 175 172 169 172 175 175 175 163 163 151 144 132 118 118 113 107 101 94 91 92 84 82 84 91 93 90 87 88 81 76 71 65 62 62 60 57 50 46 46 40 36 32 31 28 24 22 19 18 20 20 22 22 19 24 64 72 70 68 61 54 46 41 38 21 32 36
145 171 175 177 179 177 168 170 170 171 169 169 168 168 167 167 166 168 172 172 168 167 169 170 171 164 146 140 140 128 122 112 108 107 103 88 82 84 79 82 83 88 88 87 87 86 82 74 66 60 57 54 55 56 55 54 46 45 42 38 34 30 29 25 22 19 19 18 19 18 20 15 8 48 69 73 70 66 57 51 45 41 31 34 33
150 177 171 181 179 178 167 165 164 164 164 164 160 160 159 162 159 160 166 165 165 159 164 162 152 147 140 137 129 120 124 120 113 100 99 91 81 78 76 74 74 80 87 93 90 82 75 67 67 65 58 54 52 52 53 53 51 47 43 40 36 32 28 26 22 20 18 17 19 21 18 10 1 13 76 75 66 62 59 57 51 48 42 34 35
156 169 172 176 181 180 171 164 160 157 157 155 153 153 155 153 152 153 154 154 151 147 147 146 142 137 135 133 129 121 116 118 116 107 101 94 87 85 79 79 79 78 84 85 82 78 74 67 64 66 66 64 63 62 58 53 49 45 41 39 37 34 30 27 23 20 19 16 17 21 10 7 1 346 70 73 69 65 56 54 55 53 46 38 31
159 169 168 169 169 178 171 171 166 163 158 152 151 151 146 148 145 147 148 144 143 140 136 134 134 134 134 130 127 120 110 107 110 107 107 104 101 100 98 97 94 79 79 82 75 77 71 69 63 63 65 65 63 60 56 52 50 45 40 38 37 35 34 30 26 24 22 19 18 14 5 3 359 350 8 66 71 62 58 56 56 55 50 40 35
155 158 161 162 165 174 169 174 170 169 163 162 161 158 157 149 152 150 150 148 148 146 144 139 139 139 135 128 126 118 113 110 118 108 103 108 119 106 103 106 94 86 77 70 75 73 76 70 67 63 64 66 63 60 56 53 52 49 45 42 39 38 38 38 33 28 28 27 14 6 359 359 358 342 352 59 60 56 52 53 53 53 52 50 42
141 150 160 163 166 172 168 184 177 172 165 175 167 174 174 170 166 166 159 160 153 154 152 145 148 144 139 133 134 119 123 118 123 127 107 115 127 152 152 143 100 91 94 83 77 73 73 73 72 71 71 70 66 63 60 58 56 54 52 50 47 45 44 44 40 35 35 31 19 7 357 355 356 351 338 54 59 59 52 48 45 48 49 49 48
160 161 154 162 170 160 167 190 186 185 169 175 183 183 183 184 188 179 173 169 165 166 169 162 157 157 157 151 153 152 143 145 142 146 118 128 124 124 132 128 111 108 99 82 78 75 74 76 78 79 76 70 66 63 61 61 60 58 55 55 53 52 51 49 45 42 34 28 17 11 359 358 349 348 338 48 51 57 49 37 28 37 47 45 42
164 158 154 159 161 164 172 188 191 186 186 179 185 190 186 190 185 199 192 177 178 172 181 179 174 182 186 171 178 169 159 145 161 146 127 133 139 121 104 109 102 92 86 85 83 82 82 81 80 77 73 69 67 65 64 62 60 58 57 56 55 55 54 51 47 43 36 25 22 14 1 4 351 347 20 59 54 49 48 36 36 33 35 45 45
162 165 158 155 163 165 174 193 204 206 194 194 193 200 204 208 205 202 195 192 197 200 200 192 199 195 198 190 172 168 145 156 155 153 144 148 121 102 99 95 92 91 90 89 90 91 91 88 83 78 74 72 71 70 67 63 60 59 57 57 55 53 53 51 49 39 33 30 25 17 357 3 1 347 43 47 45 48 51 48 50 46 40 40 42
168 164 161 163 166 175 180 196 194 203 213 181 203 201 201 199 199 202 201 193 198 196 196 194 184 189 187 184 176 169 142 156 155 152 151 132 111 108 104 100 96 92 91 89 90 91 91 89 85 82 78 75 72 69 66 63 61 60 60 58 56 53 51 50 49 41 37 29 30 15 5 1 353 24 50 58 56 52 54 45 41 40 35 34 35
171 167 167 164 170 180 185 192 190 196 191 194 196 196 196 194 195 196 191 190 187 185 181 177 177 174 168 167 166 161 156 156 155 153 141 126 118 114 109 105 100 97 95 93 92 91 89 85 83 81 80 77 74 70 67 65 64 62 61 61 58 54 52 52 44 39 37 27 28 15 9 359 345 25 38 45 46 45 40 37 37 36 35 31 30
164 171 174 172 173 185 187 189 191 190 189 190 190 192 193 193 193 191 188 186 184 179 176 175 172 168 167 163 162 163 161 157 150 142 136 130 125 120 115 110 108 105 101 98 95 92 90 88 86 84 82 80 77 73 71 68 66 64 62 59 56 54 52 48 45 41 36 28 18 14 8 357 360 33 37 42 41 42 39 35 35 35 34 29 28
164 172 173 172 179 185 193 194 191 189 189 190 189 192 192 191 191 189 188 185 182 179 176 175 170 169 166 161 157 155 151 148 144 140 134 131 127 122 117 115 112 109 105 102 99 95 92 89 85 84 83 81 78 75 73 71 67 63 60 59 56 53 52 48 44 38 35 28 13 10 4 348 22 34 38 41 43 42 39 35 34 33 34 31 27
162 167 168 178 182 184 193 206 183 184 189 192 190 193 192 190 189 190 188 185 180 178 175 173 171 168 165 161 156 152 148 145 142 137 134 129 126 123 120 117 115 112 107 104 100 97 94 91 88 86 83 79 76 74 72 70 68 64 60 57 54 53 52 52 44 35 30 28 13 10 355 345 22 36 38 38 40 38 36 33 35 33 34 33 29
164 163 167 186 186 190 189 200 181 184 187 195 187 186 190 191 190 189 188 185 181 178 174 173 169 165 161 158 153 149 145 144 141 137 133 129 127 124 120 118 114 111 109 105 102 99 96 92 89 85 83 80 76 73 70 67 65 63 60 56 54 51 49 48 45 29 21 27 17 3 348 339 24 38 42 45 45 47 41 37 35 34 33 33 30
175 172 181 183 187 190 190 190 178 183 185 193 187 182 186 189 190 188 185 183 181 178 175 172 165 162 158 154 149 146 144 143 141 137 133 130 127 125 122 119 115 113 110 107 104 103 99 96 92 88 83 80 77 75 71 67 63 61 57 53 50 48 47 46 43 27 19 22 13 352 342 8 25 39 42 44 46 45 43 42 40 38 37 36 34
188 193 193 183 194 188 191 185 180 176 180 179 177 177 181 187 185 182 177 181 181 177 170 166 163 161 155 145 141 141 142 140 138 135 131 128 126 121 122 120 118 114 110 109 107 103 101 98 93 88 83 78 74 72 70 67 64 60 56 52 47 44 43 40 35 28 21 16 6 359 340 18 21 37 41 43 44 43 43 43 42 41 39 38 37
202 207 203 205 191 190 191 188 180 178 176 172 175 170 179 177 179 175 175 181 174 166 161 163 151 142 137 138 134 124 111 111 116 120 124 120 118 125 125 122 119 116 113 110 108 105 102 97 93 88 82 76 69 65 64 65 62 59 56 52 48 44 39 33 29 31 21 13 5 340 8 21 22 35 40 43 43 42 43 44 44 44 43 42 41
225 220 210 205 200 192 193 187 185 177 175 172 173 171 182 175 178 174 173 173 168 160 160 135 122 118 114 114 110 107 110 107 104 110 110 116 123 123 123 122 118 116 115 113 109 106 103 99 94 89 83 76 67 59 55 58 58 57 55 53 50 46 37 34 29 27 24 8 4 333 15 21 23 32 40 44 45 44 45 44 46 47 47 47 46
205 214 221 209 198 201 190 186 183 184 173 174 173 172 180 172 169 170 168 170 163 157 134 128 123 122 120 117 119 121 121 123 123 119 118 114 113 117 120 121 118 116 114 112 110 107 104 101 97 92 86 78 71 63 51 48 52 54 53 54 51 47 40 37 35 26 22 4 2 352 15 21 23 27 37 44 45 43 46 48 50 52 51 52 51
213 214 213 206 202 192 192 190 187 178 174 174 174 173 178 162 167 162 164 159 148 128 133 128 129 128 126 129 128 127 134 134 131 130 128 121 117 118 121 121 117 114 113 110 108 103 101 99 95 91 84 78 73 72 69 65 52 50 51 50 54 46 44 42 41 33 22 1 347 7 13 20 24 22 34 42 45 44 46 50 53 54 53 55 54
214 206 201 194 197 199 197 190 183 176 174 177 171 176 174 162 164 161 157 146 133 136 133 136 135 137 138 137 136 140 138 144 147 134 121 113 109 103 102 99 98 88 85 83 88 92 91 87 85 77 70 67 72 68 71 65 61 54 51 50 52 46 45 45 43 33 21 6 344 13 16 19 24 23 31 41 44 44 46 50 53 54 55 57 59
207 176 181 201 201 199 189 193 182 177 177 176 174 180 171 161 167 165 156 148 140 138 142 142 145 145 146 144 145 143 147 147 132 119 115 114 105 100 97 100 100 99 96 94 89 86 80 80 71 69 63 68 68 62 68 67 62 60 59 50 52 47 44 39 37 34 19 6 350 16 16 18 23 26 30 41 43 45 46 49 53 54 57 57 59
164 189 206 198 199 197 192 186 181 184 185 178 180 173 162 174 175 170 156 155 153 151 149 152 153 155 155 150 146 140 146 138 138 137 132 130 126 128 125 124 119 120 120 112 105 104 96 95 98 92 86 80 78 71 58 71 74 68 65 57 54 49 44 37 31 28 16 5 353 12 19 18 23 28 30 38 44 45 47 49 52 52 54 56 56
199 212 199 201 192 195 194 182 190 184 190 178 172 174 183 179 170 169 163 173 164 160 165 164 165 161 160 159 152 156 154 155 153 154 152 149 145 146 145 144 134 128 136 122 110 103 105 100 96 92 89 86 78 71 65 59 57 66 61 58 51 49 43 35 27 24 11 5 354 4 18 21 23 28 31 38 45 45 47 50 50 51 50 51 51
209 219 200 197 192 197 191 186 192 186 188 181 178 183 182 176 176 171 175 172 168 177 172 173 164 167 166 165 158 159 161 162 167 163 166 157 154 146 141 131 121 118 116 114 113 100 95 92 91 80 73 67 75 62 64 55 50 48 56 46 44 41 38 34 31 24 14 5 1 353 13 18 26 29 28 41 43 46 45 46 45 45 46 46 45
220 212 204 200 201 191 187 195 192 191 186 179 187 185 180 180 178 179 182 177 182 181 175 167 171 168 169 167 161 161 165 166 169 172 160 156 145 139 136 128 121 123 118 100 116 118 104 103 96 91 81 75 70 61 60 57 52 46 52 46 38 32 27 29 29 21 19 13 2 353 7 12 22 31 31 39 41 43 44 41 41 44 44 42 40
218 206 204 210 194 186 192 197 193 189 185 178 191 183 186 186 188 187 182 180 188 178 171 178 173 167 174 175 171 168 171 172 171 168 162 154 146 133 127 132 129 129 122 122 122 121 126 110 105 102 97 87 76 61 68 64 50 44 44 47 35 25 22 28 25 24 20 19 8 359 3 11 17 26 28 39 40 42 42 39 37 43 42 39 37
202 212 208 206 193 185 200 197 193 189 181 190 190 192 183 194 191 186 181 188 179 173 182 179 174 177 173 170 171 171 167 169 167 165 155 149 146 140 138 137 131 134 130 125 116 122 120 126 132 130 121 109 92 76 83 72 55 44 35 46 24 15 20 16 25 25 29 17 14 11 2 10 16 22 25 34 37 39 39 37 40 42 39 36 32
204 215 208 189 187 198 196 193 192 189 186 194 192 193 193 194 188 184 189 185 173 184 184 181 182 178 170 171 170 170 166 168 165 162 155 153 152 147 149 148 151 145 135 134 131 122 125 119 110 110 114 107 101 76 71 80 68 52 37 44 23 29 17 11 21 23 24 23 19 16 11 9 10 20 25 27 33 37 39 40 39 37 34 30 29
218 214 199 185 199 193 192 194 190 191 192 195 195 196 191 190 187 191 187 180 182 183 187 188 183 177 171 171 171 168 170 167 169 164 154 153 148 152 156 161 154 150 139 138 128 122 114 114 104 103 98 95 94 71 71 80 76 55 53 36 37 32 15 26 25 26 21 18 23 15 16 11 10 15 22 27 27 33 37 39 38 34 33 30 27
211 203 186 204 198 189 191 185 191 194 198 196 194 193 194 192 190 187 184 179 187 187 193 187 181 176 173 172 169 172 167 166 162 159 148 148 152 163 164 163 157 152 141 138 137 141 136 132 141 126 116 103 98 84 83 68 64 76 58 34 38 24 24 42 37 28 20 32 14 28 20 22 21 21 23 21 24 28 32 34 34 33 31 27 25
202 194 202 207 184 193 184 191 192 196 194 197 196 198 192 191 186 186 186 185 185 190 188 182 184 181 173 175 173 172 169 167 167 159 156 154 160 167 172 171 156 151 149 155 143 147 147 148 149 122 99 91 91 86 76 74 72 63 44 41 29 29 36 54 38 38 36 25 31 28 25 25 25 35 32 24 19 18 29 29 31 29 28 26 24
205 206 206 184 198 194 189 195 189 196 197 198 197 195 191 190 188 185 185 184 184 189 188 188 185 176 178 174 177 174 170 170 165 161 157 164 168 174 172 157 161 152 155 153 148 157 159 147 156 136 122 109 104 57 37 54 52 60 49 46 22 45 54 50 47 44 35 57 44 29 25 25 31 35 33 28 27 15 24 29 28 26 24 21 20
207 202 196 192 199 194 193 195 194 197 197 195 193 193 188 189 189 188 187 182 187 190 189 182 180 178 179 180 178 177 173 170 168 165 159 165 168 166 166 165 162 161 160 164 166 165 157 149 138 131 127 142 123 117 48 65 56 63 59 56 31 47 54 49 60 64 50 58 37 31 33 23 30 33 29 28 25 20 19 27 26 23 18 15 16
215 207 200 193 199 192 195 197 197 193 192 191 191 189 187 180 183 183 181 186 193 191 186 178 183 183 181 186 178 179 174 172 169 165 162 164 164 163 160 166 166 163 162 165 172 158 158 150 127 83 121 124 129 124 101 23 68 73 66 53 30 52 43 59 66 59 62 50 31 43 26 27 45 32 31 31 25 25 30 22 22 19 14 11 12
210 208 202 202 193 193 193 197 193 189 188 188 184 174 167 164 151 160 176 190 194 192 179 184 188 184 190 186 179 180 175 173 170 165 162 165 163 164 167 173 168 168 163 164 163 168 161 164 140 115 92 100 130 147 151 125 77 74 69 41 43 49 52 78 58 56 52 62 55 46 61 38 51 40 34 31 23 27 25 22 19 15 6 3 7
207 199 200 197 197 190 191 194 195 184 183 176 168 173 168 175 174 159 184 202 193 188 189 193 187 195 194 184 182 180 175 174 170 166 165 167 168 173 172 172 176 170 170 172 178 179 174 153 151 136 126 93 57 118 99 114 85 80 76 44 41 44 77 77 65 63 65 56 59 67 50 39 51 36 35 25 30 27 24 15 16 7 4 356 3
204 194 195 199 195 192 184 198 192 181 179 176 180 177 180 179 180 194 201 193 192 190 191 195 195 199 189 186 181 182 176 172 171 166 172 170 173 166 168 179 179 180 184 191 182 174 171 160 144 130 135 120 87 18 104 120 116 74 32 59 43 23 50 71 63 54 52 53 49 62 37 49 33 35 13 21 32 24 21 14 4 2 1 359 355
211 195 200 200 197 191 193 198 176 186 187 187 185 186 190 186 185 194 194 189 185 187 197 196 199 193 188 185 183 181 178 176 173 174 171 174 171 174 179 182 181 188 189 171 168 170 161 159 152 100 37 132 140 209 227 110 34 139 142 55 15 355 25 20 291 313 9 15 33 69 62 53 44 24 12 25 23 20 12 2 354 358 360 4 356
203 199 205 195 193 193 202 189 188 186 192 189 184 194 192 195 195 195 189 188 202 205 203 196 184 184 185 183 184 183 176 179 177 175 175 179 178 178 185 180 184 177 171 176 177 179 180 173 177 152 123 55 117 188 146 196 139 132 117 86 7 66 341 344 339 6 338 317 18 69 82 63 46 43 20 33 16 2 355 350 348 353 354 358 354
217 210 203 198 196 201 200 191 191 191 189 192 193 192 185 179 170 104 160 149 176 169 167 159 180 170 186 187 190 182 182 182 175 180 181 180 181 184 179 180 185 185 182 175 181 185 180 184 181 173 144 129 152 194 115 177 140 139 81 104 188 126 344 257 306 289 256 242 123 61 79 96 12 37 40 23 347 349 336 333 341 345 343 344 342
220 215 202 199 200 204 198 193 191 192 191 189 186 169 154 140 127 88 100 89 77 145 157 193 188 189 188 195 195 181 183 183 183 183 181 183 184 183 181 184 182 186 184 184 185 190 186 183 177 168 180 152 173 164 202 80 108 303 142 110 68 27 215 214 47 291 4 96 10 21 54 118 83 83 70 321 332 337 331 328 326 341 336 337 336
230 224 209 209 204 203 195 193 191 189 189 185 178 170 175 171 163 162 168 180 186 181 197 199 181 191 202 187 180 189 186 186 182 183 187 182 185 185 184 180 185 185 190 193 188 170 183 184 192 183 179 192 144 149 133 110 67 73 157 129 165 173 178 219 130 241 332 335 302 306 275 352 329 105 44 306 319 333 332 317 319 326 331 327 324
236 220 214 212 209 203 194 192 192 190 185 181 176 175 178 182 185 188 187 187 193 206 202 189 190 196 184 184 192 186 188 184 185 185 187 185 183 184 184 186 186 188 187 182 186 193 190 192 178 188 185 152 138 141 160 167 86 36 43 44 68 47 124 131 203 94 325 311 327 320 269 332 334 253 264 274 271 346 312 304 306 318 319 314 312
235 213 220 214 206 202 191 192 191 188 185 178 181 183 183 186 188 194 195 200 204 203 188 194 189 182 185 188 182 187 187 188 185 187 187 185 182 184 184 183 186 189 184 193 195 191 180 187 190 188 166 180 168 155 163 168 160 171 99 77 64 57 48 69 109 156 154 189 288 319 278 334 355 272 257 275 232 267 297 296 295 307 305 299 290
237 216 217 214 213 206 197 190 194 189 185 181 183 189 190 188 191 192 200 211 208 198 175 176 182 180 187 180 181 183 186 191 189 187 187 184 185 185 182 185 187 188 190 195 194 182 186 180 179 179 186 191 187 155 149 178 165 157 139 79 81 56 47 39 57 75 128 138 269 248 269 333 338 268 269 277 239 250 253 272 282 286 288 289 287
250 239 240 208 198 198 202 195 200 191 185 186 188 190 192 187 193 201 205 205 192 165 155 175 180 172 185 182 180 178 186 188 193 188 185 190 189 184 185 189 190 188 190 192 185 185 187 192 190 187 181 177 176 169 171 169 171 155 162 149 136 112 68 44 39 111 68 154 199 198 210 267 300 284 259 266 259 262 262 268 272 265 262 258 265
291 257 221 186 178 182 194 206 209 195 190 191 188 193 192 193 201 201 203 198 186 168 167 179 171 173 188 184 182 186 182 191 184 190 195 191 192 188 189 192 189 188 189 187 191 187 189 188 186 180 184 176 175 173 151 159 155 160 163 167 166 170 171 173 182 183 162 158 173 231 181 207 231 298 279 290 256 267 259 251 246 255 248 257 247